Notices

What's New in latest Release from April 7th, 2021:

- Updated Glossary, including Speed of Maximum Gust, and Total Hourly Precipitation

- Updated national and regional climate services offices contacts and prices information

- Addition of station inventory lists for 1981-2010, 1971-2000, and 1961-1990 Normals.

If you haven't already, please take our survey and provide feedback about our website: https://eccc.sondage-survey.ca/f/LanguageSelection.aspx?s=442ca660-fcf1-47c0-95a9-59707d6fd709

Hourly Data Report for April 27, 2021

KENORA A
ONTARIO
Current Station Operator: NAVCAN

49°47'18.000" N
94°21'47.000" W
409.70 m
6034076
71850
YQK

Download Data

Hourly Data (April 2021)
Hourly Data Report for April 27, 2021
TIME
LST
Temp Definition
°C
Dew Point Definition
°C
Rel Hum Definition
%
Precip. Amount Definition
mm

Wind Dir Definition
10's deg

Wind Spd Definition
km/h
Visibility Definition
km
Stn Press Definition
kPa
Hmdx Definition


Wind Chill Definition


Weather Definition


00:00 2.7 0.0 82   15 9 32.2 96.15     Cloudy
01:00 2.2 -0.1 85   15 11 32.2 96.13     LegendNANA
02:00 1.3 -0.2 90   18 7 32.2 96.13     LegendNANA
03:00 1.3 0.0 90   17 8 32.2 96.16     Mostly Cloudy
04:00 1.0 0.0 93   18 8 32.2 96.21     LegendNANA
05:00 0.8 -0.2 93   16 7 32.2 96.22     LegendNANA
06:00 1.0 0.0 94   17 4 32.2 96.31     Mostly Cloudy
07:00 2.9 0.9 86   15 9 32.2 96.40     LegendNANA
08:00 3.6 0.9 82   16 11 32.2 96.43     LegendNANA
09:00 4.5 1.2 79   19 4 32.2 96.44     Cloudy
10:00 5.7 1.2 73   33 4 32.2 96.48     LegendNANA
11:00 8.6 2.0 63   36 3 32.2 96.48     LegendNANA
12:00 10.0 -0.1 49   28 6 32.2 96.47     Mainly Clear
13:00 12.1 0.0 43   29 5 32.2 96.49     LegendNANA
14:00 12.6 0.2 42   25 8 32.2 96.50     LegendNANA
15:00 13.8 -0.2 38   34 13 32.2 96.47     Mainly Clear
16:00 13.9 -2.3 32   33 10 32.2 96.45     LegendNANA
17:00 14.5 -2.4 31   29 12 32.2 96.47     LegendNANA
18:00 13.9 -1.0 36   7 11 32.2 96.49     Mainly Clear
19:00 12.2 -2.6 35   7 9 32.2 96.55     LegendNANA
20:00 10.5 -2.1 41   6 8 32.2 96.62     LegendNANA
21:00 10.0 -2.1 43   9 7 32.2 96.67     Mainly Clear
22:00 9.1 -2.3 45   15 8 32.2 96.68     LegendNANA
23:00 8.1 -0.9 53   20 5 32.2 96.68     LegendNANA

Notes on Data Quality.

Legend

  • E = Estimated
  • M = Missing
  • NA = Not Available*
  • [empty] = Indicates an unobserved value
Date modified: